sat.trackr.live / text

‹ back to catalog

STARLINK-30953

NORAD 58491 · 2023-186U

PAYLOAD ACTIVE UNKNOWN

§ Identity

Operator
Country
US
Launch date
2023-12-03
Launch site
AFETR
Launch vehicle
Mass (kg)
RCS (m²)

Purposes: comms

External: N2YO · Heavens-Above · Gunter

§ Orbital elements

Epoch: 2026-05-25T03:34:35.717664Z

Period
94.27 min
Inclination
43.0009°
Eccentricity
0.0001639
Mean motion
15.27580442 rev/d
Perigee alt
481.9 km
Apogee alt
484.2 km
Semi-major
6,861.2 km
B*
1.3728e-4
RAAN
195.6985°
Arg perigee
264.6872°
Mean anomaly
95.3793°
Rev number
13,958

§ Raw data

STARLINK-309531 58491U 23186U   26145.14902451  .00003517  00000+0  13728-3 0  99902 58491  43.0009 195.6985 0001639 264.6872  95.3793 15.27580442139582

JSON: /api/v1/satellites/58491 · /tle

For live sub-satellite position, see the globe view (requires WebGL).

§ Visibility from observer

Set your observer location to see the next 7 days of passes ≥ 10°. The values pass through the URL so the page stays shareable.

No JS? Fill the form by hand. The geolocation button needs JavaScript.